DW3478 Weather Reports


time (UTC)temp
C
wind
direction
speed
KPH
gust
KPH
rain 1hr
cm
rain 24hr
cm
rain mn
cm
humidity
%
barometer
mb
20260831093805 22 248 4.8 4.8 0.00 0.00 0.00 80 1022.0
20260831091305 22 218 1.6 4.8 0.00 0.00 0.00 78 1022.0
20260831090805 22 263 1.6 4.8 0.00 0.00 0.00 79 1022.0
20260831090305 22 262 0.0 3.2 0.00 0.00 0.00 80 1022.0
20260831085805 22 272 3.2 4.8 0.00 0.00 0.00 79 1022.0
20260831085306 22 252 4.8 8.0 0.00 0.00 0.00 78 1022.0
20260831084306 22 271 3.2 8.0 0.00 0.00 0.00 79 1022.0
20260831083805 22 273 0.0 1.6 0.00 0.00 0.00 80 1022.0
20260831083305 22 275 1.6 4.8 0.00 0.00 0.00 82 1022.0
20260831082806 22 276 0.0 4.8 0.00 0.00 0.00 81 1022.0
20260831080805 21 263 0.0 3.2 0.00 0.00 0.00 83 1021.0
20260831080305 21 269 0.0 1.6 0.00 0.00 0.00 84 1021.0
20260831075805 21 297 0.0 0.0 0.00 0.00 0.00 88 1021.0
20260831074805 20 300 0.0 1.6 0.00 0.00 0.00 89 1021.0
20260831074305 20 317 0.0 1.6 0.00 0.00 0.00 89 1021.0
20260831073805 20 317 0.0 1.6 0.00 0.00 0.00 89 1021.0
20260831072306 19 323 0.0 0.0 0.00 0.00 0.00 88 1021.0
20260831071805 19 323 0.0 1.6 0.00 0.00 0.00 88 1021.0
20260831065306 19 255 1.6 4.8 0.00 0.00 0.00 88 1021.0
20260831064805 19 351 1.6 3.2 0.00 0.00 0.00 88 1021.0
20260831064306 19 343 1.6 3.2 0.00 0.00 0.00 88 1021.0
20260831063305 19 335 0.0 1.6 0.00 0.00 0.00 88 1020.0
20260831062805 19 342 0.0 3.2 0.00 0.00 0.00 88 1020.0
20260831055805 19 346 1.6 4.8 0.00 0.00 0.00 87 1020.0
20260831055306 19 21 1.6 3.2 0.00 0.00 0.00 87 1020.0
20260831054805 19 11 0.0 3.2 0.00 0.00 0.00 88 1020.0
20260831053305 19 336 0.0 1.6 0.00 0.00 0.00 87 1020.0
20260831051805 19 350 1.6 3.2 0.00 0.00 0.00 87 1020.0
20260831050806 19 10 0.0 3.2 0.00 0.00 0.00 87 1021.0
20260831050304 19 4 0.0 3.2 0.00 0.00 0.00 87 1021.0
20260831045805 19 0 0.0 1.6 0.00 0.00 0.00 87 1021.0
20260831040805 19 333 0.0 3.2 0.00 0.00 0.00 86 1021.0
20260831040305 19 11 0.0 3.2 0.00 0.00 0.00 87 1021.0
20260831034305 19 323 0.0 3.2 0.00 0.00 0.00 86 1021.0
20260831033805 19 323 0.0 1.6 0.00 0.00 0.00 86 1021.0
20260831033305 19 343 0.0 1.6 0.00 0.00 0.00 86 1021.0
20260831032804 19 357 1.6 3.2 0.00 0.00 0.00 86 1021.0
20260831030805 19 4 0.0 1.6 0.00 0.00 0.00 85 1021.0
20260831030305 19 8 0.0 3.2 0.00 0.00 0.00 85 1021.0
20260831024804 19 326 0.0 1.6 0.00 0.00 0.00 85 1021.0
20260831024305 19 8 0.0 3.2 0.00 0.00 0.00 85 1021.0
20260831023804 19 17 0.0 1.6 0.00 0.00 0.00 85 1022.0
20260831023305 19 17 0.0 3.2 0.00 0.00 0.00 85 1022.0
20260831022805 19 8 0.0 1.6 0.00 0.00 0.00 85 1022.0
20260831022306 19 2 0.0 1.6 0.00 0.00 0.00 85 1022.0
20260831021805 19 8 0.0 1.6 0.00 0.00 0.00 85 1022.0
20260831021305 19 13 0.0 1.6 0.00 0.00 0.00 85 1022.0
20260831020805 19 26 1.6 3.2 0.00 0.00 0.00 85 1022.0
20260831020305 19 15 1.6 4.8 0.00 0.00 0.00 85 1022.0
20260831015805 19 2 0.0 3.2 0.00 0.00 0.00 84 1022.0
20260831015306 20 7 0.0 3.2 0.00 0.00 0.00 85 1022.0
20260831014804 20 0 0.0 1.6 0.00 0.00 0.00 85 1022.0
20260831014305 20 12 0.0 1.6 0.00 0.00 0.00 85 1022.0
20260831012306 20 20 0.0 1.6 0.00 0.00 0.00 85 1022.0
20260831011805 20 352 0.0 3.2 0.00 0.00 0.00 85 1022.0
20260831003305 20 21 1.6 3.2 0.00 0.00 0.00 85 1022.0
20260831002805 20 29 1.6 1.6 0.00 0.00 0.00 85 1022.0
20260831002306 20 5 0.0 1.6 0.00 0.00 0.00 85 1022.0
20260831000805 20 13 0.0 1.6 0.00 0.00 0.00 85 1022.0
20260831000304 20 15 0.0 3.2 0.00 0.00 0.00 85 1022.0
20260830234805 20 289 0.0 0.0 0.00 0.00 0.00 85 1022.0
20260830230804 20 305 1.6 4.8 0.00 0.00 0.00 84 1022.0
20260830230305 20 331 0.0 1.6 0.00 0.00 0.00 84 1022.0
20260830225306 20 21 1.6 3.2 0.00 0.00 0.00 84 1022.0
20260830224804 20 22 1.6 4.8 0.00 0.00 0.00 84 1022.0
20260830224305 20 15 0.0 0.0 0.00 0.00 0.00 83 1022.0
20260830223804 20 15 1.6 4.8 0.00 0.00 0.00 83 1022.0
20260830223304 20 35 1.6 3.2 0.00 0.00 0.00 83 1022.0
20260830222805 20 35 0.0 4.8 0.00 0.00 0.00 82 1022.0
20260830221304 20 37 3.2 4.8 0.00 0.00 0.00 82 1022.0
20260830220805 20 25 0.0 3.2 0.00 0.00 0.00 81 1022.0
20260830220305 20 25 1.6 4.8 0.00 0.00 0.00 81 1022.0
20260830215805 20 23 1.6 4.8 0.00 0.00 0.00 81 1022.0
20260830215305 21 33 0.0 3.2 0.00 0.00 0.00 81 1022.0
20260830214805 21 31 0.0 3.2 0.00 0.00 0.00 81 1022.0
20260830213805 21 74 0.0 4.8 0.00 0.00 0.00 80 1022.0
20260830213305 21 42 1.6 4.8 0.00 0.00 0.00 80 1022.0
20260830212805 21 35 1.6 4.8 0.00 0.00 0.00 79 1022.0
20260830210304 21 33 0.0 3.2 0.00 0.00 0.00 77 1021.0
20260830205804 21 0 1.6 3.2 0.00 0.00 0.00 77 1021.0
20260830205306 21 44 0.0 3.2 0.00 0.00 0.00 77 1021.0
20260830201804 22 200 1.6 4.8 0.00 0.00 0.00 76 1021.0
20260830201305 22 200 1.6 3.2 0.00 0.00 0.00 76 1021.0
20260830200805 22 187 1.6 4.8 0.00 0.00 0.00 75 1021.0
20260830200305 22 220 0.0 1.6 0.00 0.00 0.00 75 1021.0
20260830195804 22 220 0.0 4.8 0.00 0.00 0.00 75 1021.0
20260830195305 22 220 3.2 4.8 0.00 0.00 0.00 75 1021.0
20260830193305 22 239 0.0 4.8 0.00 0.00 0.00 74 1021.0
20260830192805 22 201 3.2 4.8 0.00 0.00 0.00 74 1021.0
20260830192305 22 235 1.6 4.8 0.00 0.00 0.00 73 1021.0
20260830190304 23 233 3.2 4.8 0.00 0.00 0.00 72 1021.0
20260830185805 23 333 3.2 8.0 0.00 0.00 0.00 72 1021.0
20260830185306 23 200 4.8 8.0 0.00 0.00 0.00 72 1021.0
20260830184806 23 251 6.4 9.7 0.00 0.00 0.00 71 1021.0
20260830184304 23 208 4.8 9.7 0.00 0.00 0.00 71 1021.0
20260830183805 23 218 4.8 8.0 0.00 0.00 0.00 72 1021.0
20260830183304 23 252 4.8 9.7 0.00 0.00 0.00 71 1021.0
20260830182805 23 257 4.8 8.0 0.00 0.00 0.00 71 1021.0
20260830180805 24 258 1.6 8.0 0.00 0.00 0.00 68 1021.0
20260830174804 24 265 4.8 11.3 0.00 0.00 0.00 67 1021.0
20260830174305 24 285 3.2 9.7 0.00 0.00 0.00 67 1021.0
20260830171304 25 270 6.4 12.9 0.00 0.00 0.00 64 1021.0
20260830170805 25 270 4.8 14.5 0.00 0.00 0.00 66 1021.0
20260830170304 25 268 4.8 11.3 0.00 0.00 0.00 65 1021.0
20260830165804 25 243 4.8 14.5 0.00 0.00 0.00 65 1021.0
20260830165306 24 275 8.0 11.3 0.00 0.00 0.00 67 1021.0
20260830164804 24 257 6.4 12.9 0.00 0.00 0.00 67 1021.0
20260830164305 24 259 8.0 12.9 0.00 0.00 0.00 66 1021.0
20260830163804 24 242 8.0 14.5 0.00 0.00 0.00 66 1021.0
20260830163304 25 272 4.8 9.7 0.00 0.00 0.00 67 1021.0
20260830162804 25 267 6.4 16.1 0.00 0.00 0.00 65 1021.0
20260830162306 24 212 4.8 11.3 0.00 0.00 0.00 67 1021.0
20260830161804 24 208 6.4 12.9 0.00 0.00 0.00 66 1021.0
20260830161304 24 230 8.0 14.5 0.00 0.00 0.00 66 1021.0
20260830160804 25 192 8.0 12.9 0.00 0.00 0.00 65 1021.0
20260830160304 24 251 4.8 11.3 0.00 0.00 0.00 66 1021.0
20260830155804 24 218 6.4 12.9 0.00 0.00 0.00 66 1021.0
20260830155306 24 279 6.4 11.3 0.00 0.00 0.00 68 1021.0
20260830154804 24 263 6.4 11.3 0.00 0.00 0.00 67 1021.0
20260830154305 25 242 6.4 9.7 0.00 0.00 0.00 66 1021.0
20260830152804 24 236 4.8 11.3 0.00 0.00 0.00 68 1021.0
20260830152306 23 251 8.0 19.3 0.00 0.00 0.00 68 1021.0
20260830151805 24 268 4.8 12.9 0.00 0.00 0.00 67 1021.0
20260830150305 24 221 8.0 16.1 0.00 0.00 0.00 64 1021.0
20260830145806 24 214 11.3 16.1 0.00 0.00 0.00 66 1021.0
20260830144805 24 210 6.4 16.1 0.00 0.00 0.00 65 1021.0
20260830144306 25 205 8.0 19.3 0.00 0.00 0.00 62 1021.0
20260830142805 25 186 8.0 12.9 0.00 0.00 0.00 62 1021.0
20260830134806 24 201 8.0 11.3 0.00 0.00 0.00 65 1021.0
20260830133305 25 198 8.0 11.3 0.00 0.00 0.00 63 1022.0
20260830132805 25 211 8.0 11.3 0.00 0.00 0.00 64 1022.0
20260830132306 25 187 8.0 11.3 0.00 0.00 0.00 64 1022.0
20260830131806 25 224 4.8 11.3 0.00 0.00 0.00 64 1022.0
20260830131305 23 214 8.0 11.3 0.00 0.00 0.00 67 1022.0
20260830130806 24 182 6.4 14.5 0.00 0.00 0.00 66 1022.0
20260830130305 24 191 8.0 12.9 0.00 0.00 0.00 67 1022.0
20260830125805 25 243 8.0 11.3 0.00 0.00 0.00 67 1022.0
20260830125306 25 244 8.0 11.3 0.00 0.00 0.00 66 1022.0
20260830124805 25 208 8.0 12.9 0.00 0.00 0.00 65 1022.0
20260830124305 24 210 6.4 11.3 0.00 0.00 0.00 70 1022.0
20260830123806 24 224 8.0 11.3 0.00 0.00 0.00 68 1022.0
20260830123305 24 221 8.0 16.1 0.00 0.00 0.00 68 1022.0
20260830122806 24 213 9.7 12.9 0.00 0.00 0.00 67 1022.0
20260830121305 24 217 8.0 16.1 0.00 0.00 0.00 70 1022.0
20260830112306 22 201 4.8 11.3 0.00 0.00 0.00 71 1022.0
20260830111806 23 204 4.8 11.3 0.00 0.00 0.00 69 1022.0
20260830111305 23 212 4.8 9.7 0.00 0.00 0.00 69 1022.0
20260830110805 23 172 4.8 8.0 0.00 0.00 0.00 71 1022.0
20260830110306 23 232 4.8 9.7 0.00 0.00 0.00 70 1022.0
20260830105806 23 223 4.8 9.7 0.00 0.00 0.00 71 1022.0
20260830100805 22 209 4.8 8.0 0.00 0.00 0.00 72 1007.0
20260830100305 22 212 4.8 8.0 0.00 0.00 0.00 72 1007.0
20260830095805 22 222 4.8 9.7 0.00 0.00 0.00 74 1007.0
20260830095306 22 232 3.2 4.8 0.00 0.00 0.00 75 1008.9
20260830094805 22 237 3.2 4.8 0.00 0.00 0.00 74 1002.9
20260830094306 22 257 1.6 3.2 0.00 0.00 0.00 75 1009.5